sat.trackr.live / text

‹ back to catalog

STARLINK-4266

NORAD 52869 · 2022-062AR

PAYLOAD ACTIVE UNKNOWN

§ Identity

Operator
Country
US
Launch date
2022-06-17
Launch site
AFETR
Launch vehicle
Mass (kg)
RCS (m²)

Purposes: comms

External: N2YO · Heavens-Above · Gunter

§ Orbital elements

Epoch: 2026-09-20T04:16:41.988864Z

Period
93.85 min
Inclination
53.1585°
Eccentricity
0.0001257
Mean motion
15.34391057 rev/d
Perigee alt
461.9 km
Apogee alt
463.6 km
Semi-major
6,840.9 km
B*
3.2285e-5
RAAN
206.9297°
Arg perigee
85.8746°
Mean anomaly
274.2401°
Rev number
23,561

§ Raw data

STARLINK-42661 52869U 22062AR  26263.17826376  .00000714  00000+0  32285-4 0  99962 52869  53.1585 206.9297 0001257  85.8746 274.2401 15.34391057235612

JSON: /api/v1/satellites/52869 · /tle

For live sub-satellite position, see the globe view (requires WebGL).

§ Visibility from observer

Set your observer location to see the next 7 days of passes ≥ 10°. The values pass through the URL so the page stays shareable.

No JS? Fill the form by hand. The geolocation button needs JavaScript.